Torna al catalogo

SL-12 R/B(2)

AttivoGEO
NORAD 11941·ROCKET BODY·🇷🇺 Russia

Lanciato Jul 18, 1978 da Baikonur Cosmodrome

Loading…

TLE

AggiornatoSource: Space-Track

Epoca: Sep 14, 2026, 11:44 UTC

1 11941U 78073F   26257.48911942 -.00000078  00000-0  00000-0 0  9997
2 11941   6.2190 286.5157 0014137 181.7873 346.7526  0.97570254164172

Traccia SL-12 R/B(2) in tempo reale con AllMySat

Download on the App Store